Change the Weather History Date:

Friday, January 27, 2012

  Actual Average (KFAR) Record (KFAR)
Temperature  
Mean Temperature 25 °F 10 °F  
Max Temperature 33 °F 19 °F 41 °F (1892)
Min Temperature 17 °F 0 °F -31 °F (2004)
Degree Days  
Heating Degree Days 40 55  
Month to date heating degree days 1507  
Since 1 July heating degree days 5047  
Cooling Degree Days 0 0  
Month to date cooling degree days 0  
Year to date cooling degree days 0  
Moisture  
Dew Point 22 °F    
Average Humidity 85    
Maximum Humidity 100    
Minimum Humidity 69    
Precipitation  
Precipitation 0.01 in 0.02 in 0.50 in (1903)
Month to date precipitation 0.62  
Year to date precipitation 0.62  
Snow  
Snow 0.00 in 0.30 in 5.00 in (1903)
Month to date snowfall 10.0  
Since 1 July snowfall 29.8  
Snow Depth -    
Sea Level Pressure  
Sea Level Pressure 29.76 in    
Wind  
Wind Speed 12 mph (West)    
Max Wind Speed 29 mph    
Max Gust Speed 39 mph    
Visibility 9 miles    
Events Snow    
T = Trace of Precipitation, MM = Missing Value Source: NWS Daily Summary

Daily Weather History Graph

Daily Weather History Graph

Search for Another Location

Airport or City:

Trip Planner

Search our weather history database for the weather conditions in past years. The results will help you decide how hot, cold, wet, or windy it might be!

Date:

Astronomy

Jan. 27, 2012 Rise Set
Actual Time 7:57 AM CST 5:21 PM CST
Civil Twilight 7:24 AM CST 5:54 PM CST
Nautical Twilight 6:47 AM CST 6:31 PM CST
Astronomical Twilight 6:11 AM CST 7:07 PM CST
Moon 9:31 AM CST (1/27) 10:37 PM CST (1/27)
Length of Visible Light 10h 30m
Length of Day
9h 24m
Waxing Crescent, 20% of the Moon is Illuminated
Jan 27
Waxing Crescent
Jan 30
First Quarter
Feb 7
Full
Feb 14
Last Quarter
Feb 21
New

Hourly Weather History & Observations

Time (CST) Temp. Windchill Dew Point Humidity Pressure Visibility Wind Dir Wind Speed Gust Speed Precip Events Conditions
12:14 AM 21.2 °F 12.6 °F 17.6 °F 86% 29.75 in 10.0 mi SW 6.9 mph - N/A   Clear
12:34 AM 21.2 °F 12.6 °F 17.6 °F 86% 29.74 in 10.0 mi SSW 6.9 mph - N/A   Clear
12:55 AM 19.4 °F 12.8 °F 15.8 °F 86% 29.73 in 10.0 mi South 4.6 mph - N/A   Clear
1:14 AM 19.4 °F 12.8 °F 17.6 °F 93% 29.72 in 10.0 mi South 4.6 mph - N/A   Clear
1:34 AM 17.6 °F 7.3 °F 15.8 °F 93% 29.71 in 10.0 mi SSE 8.1 mph - N/A   Clear
1:55 AM 17.6 °F 5.7 °F 15.8 °F 93% 29.71 in 10.0 mi SSE 10.4 mph - N/A   Clear
2:14 AM 19.4 °F 9.5 °F 17.6 °F 93% 29.71 in 10.0 mi SSE 8.1 mph - N/A   Clear
2:34 AM 17.6 °F 6.4 °F 17.6 °F 100% 29.71 in 10.0 mi SSE 9.2 mph - N/A   Clear
2:55 AM 19.4 °F 7.9 °F 17.6 °F 93% 29.71 in 10.0 mi SSE 10.4 mph - N/A   Clear
3:14 AM 21.2 °F 10.1 °F 19.4 °F 93% 29.68 in 10.0 mi SSE 10.4 mph - N/A   Clear
3:34 AM 21.2 °F 8.9 °F 19.4 °F 93% 29.67 in 10.0 mi SSE 12.7 mph - N/A   Scattered Clouds
3:55 AM 24.8 °F 14.6 °F 21.2 °F 86% 29.67 in 10.0 mi SSE 10.4 mph - N/A   Overcast
4:14 AM 24.8 °F 15.3 °F 21.2 °F 86% 29.66 in 10.0 mi SSE 9.2 mph - N/A   Overcast
4:35 AM 24.8 °F 19.1 °F 21.2 °F 86% 29.65 in 10.0 mi South 4.6 mph - N/A   Overcast
4:54 AM 24.8 °F 14.0 °F 21.2 °F 86% 29.64 in 7.0 mi SSE 11.5 mph - N/A   Overcast
5:14 AM 26.6 °F 17.5 °F 23.0 °F 86% 29.63 in 10.0 mi South 9.2 mph - N/A   Overcast
5:35 AM 28.4 °F 17.5 °F 23.0 °F 80% 29.61 in 10.0 mi South 13.8 mph - N/A   Overcast
6:34 AM 28.4 °F 19.1 °F 28.4 °F 100% 29.60 in 10.0 mi South 10.4 mph - N/A   Overcast
7:14 AM 28.4 °F 20.4 °F 28.4 °F 100% 29.60 in 10.0 mi South 8.1 mph 17.3 mph N/A   Overcast
7:35 AM 30.2 °F 22.6 °F 28.4 °F 93% 29.60 in 1.8 mi South 8.1 mph 16.1 mph N/A Snow Light Snow
7:54 AM 30.2 °F 22.6 °F 28.4 °F 93% 29.60 in 10.0 mi South 8.1 mph - N/A   Overcast
8:14 AM 30.2 °F 21.3 °F 28.4 °F 93% 29.60 in 10.0 mi South 10.4 mph - N/A   Overcast
8:34 AM 30.2 °F 21.3 °F 28.4 °F 93% 29.60 in 10.0 mi SSW 10.4 mph - N/A   Overcast
8:54 AM 30.2 °F 23.4 °F 28.4 °F 93% 29.61 in 10.0 mi WSW 6.9 mph - N/A   Overcast
9:14 AM 33.8 °F 21.3 °F 30.2 °F 87% 29.62 in 7.0 mi NW 24.2 mph 27.6 mph N/A   Overcast
9:34 AM 28.4 °F 13.0 °F 26.6 °F 93% 29.65 in 0.5 mi NNW 28.8 mph 39.1 mph 0.01 in   Light Freezing Rain
9:54 AM 26.6 °F 11.4 °F 26.6 °F 100% 29.67 in 1.8 mi NNW 25.3 mph - 0.01 in   Overcast
9:55 AM 26.6 °F 11.1 °F 26.6 °F 100% 29.67 in 1.8 mi North 26.5 mph 31.1 mph 0.01 in Snow Light Snow
10:14 AM 26.6 °F 11.4 °F 26.6 °F 100% 29.69 in 2.5 mi North 25.3 mph 31.1 mph N/A   Overcast
10:34 AM 26.6 °F 10.8 °F 26.6 °F 100% 29.70 in 2.5 mi North 27.6 mph 33.4 mph N/A   Scattered Clouds
10:54 AM 28.4 °F 13.5 °F 26.6 °F 93% 29.70 in 10.0 mi NNE 26.5 mph 32.2 mph N/A   Clear
11:14 AM 28.4 °F 15.1 °F 26.6 °F 93% 29.73 in 10.0 mi North 20.7 mph 27.6 mph N/A   Clear
11:34 AM 30.2 °F 16.5 °F 28.4 °F 93% 29.77 in 10.0 mi NNW 24.2 mph 29.9 mph N/A   Mostly Cloudy
11:54 AM 30.2 °F 17.1 °F 28.4 °F 93% 29.78 in 10.0 mi NNW 21.9 mph - N/A   Overcast
12:14 PM 30.2 °F 17.4 °F 26.6 °F 86% 29.79 in 10.0 mi NNW 20.7 mph 25.3 mph N/A   Overcast
12:34 PM 28.4 °F 15.8 °F 24.8 °F 86% 29.81 in 10.0 mi NNW 18.4 mph - N/A   Scattered Clouds
12:54 PM 28.4 °F 15.8 °F 23.0 °F 80% 29.82 in 10.0 mi NNW 18.4 mph - N/A   Clear
1:14 PM 28.4 °F 15.8 °F 23.0 °F 80% 29.82 in 10.0 mi NNW 18.4 mph 23.0 mph N/A   Clear
1:34 PM 30.2 °F 18.1 °F 23.0 °F 75% 29.83 in 10.0 mi NNW 18.4 mph 25.3 mph N/A   Clear
1:54 PM 30.2 °F 18.5 °F 23.0 °F 75% 29.84 in 10.0 mi NW 17.3 mph - N/A   Clear
2:14 PM 30.2 °F 18.1 °F 23.0 °F 75% 29.85 in 10.0 mi NW 18.4 mph - N/A   Clear
2:34 PM 30.2 °F 18.5 °F 23.0 °F 75% 29.85 in 10.0 mi NW 17.3 mph - N/A   Clear
2:54 PM 30.2 °F 18.5 °F 21.2 °F 69% 29.86 in 10.0 mi NW 17.3 mph - N/A   Clear
3:14 PM 30.2 °F 17.4 °F 21.2 °F 69% 29.87 in 10.0 mi NW 20.7 mph 24.2 mph N/A   Clear
3:34 PM 28.4 °F 17.0 °F 21.2 °F 74% 29.88 in 10.0 mi NW 15.0 mph - N/A   Clear
3:54 PM 28.4 °F 17.0 °F 21.2 °F 74% 29.88 in 10.0 mi NW 15.0 mph 20.7 mph N/A   Clear
4:14 PM 28.4 °F 18.0 °F 21.2 °F 74% 29.89 in 10.0 mi WNW 12.7 mph 23.0 mph N/A   Clear
4:34 PM 28.4 °F 16.6 °F 19.4 °F 69% 29.89 in 10.0 mi NW 16.1 mph 24.2 mph N/A   Clear
4:54 PM 28.4 °F 18.5 °F 19.4 °F 69% 29.89 in 10.0 mi WNW 11.5 mph - N/A   Clear
5:15 PM 28.4 °F 15.8 °F 19.4 °F 69% 29.89 in 10.0 mi WNW 18.4 mph 21.9 mph N/A   Clear
5:34 PM 26.6 °F 15.7 °F 21.2 °F 80% 29.90 in 10.0 mi WNW 12.7 mph - N/A   Clear
5:54 PM 26.6 °F 15.2 °F 21.2 °F 80% 29.90 in 10.0 mi WNW 13.8 mph - N/A   Clear
6:14 PM 26.6 °F 14.7 °F 21.2 °F 80% 29.91 in 10.0 mi West 15.0 mph - N/A   Clear
6:34 PM 26.6 °F 14.3 °F 21.2 °F 80% 29.91 in 10.0 mi WNW 16.1 mph - N/A   Clear
6:54 PM 26.6 °F 14.3 °F 21.2 °F 80% 29.92 in 10.0 mi WNW 16.1 mph - N/A   Clear
7:15 PM 26.6 °F 13.4 °F 19.4 °F 74% 29.92 in 10.0 mi WNW 18.4 mph - N/A   Clear
7:34 PM 26.6 °F 14.7 °F 19.4 °F 74% 29.93 in 10.0 mi WNW 15.0 mph - N/A   Clear
7:54 PM 26.6 °F 14.3 °F 17.6 °F 69% 29.93 in 10.0 mi WNW 16.1 mph - N/A   Clear
8:14 PM 24.8 °F 12.9 °F 17.6 °F 74% 29.93 in 10.0 mi WNW 13.8 mph 20.7 mph N/A   Clear
8:34 PM 24.8 °F 11.9 °F 15.8 °F 69% 29.92 in 10.0 mi WNW 16.1 mph 20.7 mph N/A   Clear
8:55 PM 24.8 °F 11.1 °F 15.8 °F 69% 29.93 in 10.0 mi WNW 18.4 mph 24.2 mph N/A   Clear
9:14 PM 24.8 °F 12.4 °F 15.8 °F 69% 29.92 in 10.0 mi WNW 15.0 mph 21.9 mph N/A   Clear
9:35 PM 24.8 °F 11.1 °F 15.8 °F 69% 29.92 in 10.0 mi WNW 18.4 mph 24.2 mph N/A   Clear
9:54 PM 24.8 °F 11.1 °F 15.8 °F 69% 29.91 in 10.0 mi WNW 18.4 mph - N/A   Clear
10:14 PM 23.0 °F 9.6 °F 17.6 °F 80% 29.91 in 10.0 mi WNW 16.1 mph - N/A   Clear
10:34 PM 23.0 °F 10.6 °F 17.6 °F 80% 29.91 in 10.0 mi WNW 13.8 mph - N/A   Clear
10:54 PM 23.0 °F 10.1 °F 17.6 °F 80% 29.91 in 10.0 mi WNW 15.0 mph - N/A   Clear
11:14 PM 23.0 °F 9.6 °F 17.6 °F 80% 29.91 in 10.0 mi WNW 16.1 mph - N/A   Clear
11:35 PM 23.0 °F 10.6 °F 17.6 °F 80% 29.91 in 10.0 mi WNW 13.8 mph - N/A   Scattered Clouds
11:54 PM 23.0 °F 10.6 °F 17.6 °F 80% 29.91 in 10.0 mi WNW 13.8 mph - N/A   Mostly Cloudy